This demonstration page uses our WeatherBlox Daily Observations layout. Learn more.

Left ArrowRight Arrow

Hourly Observations for February 25, 2016

Temp ( °F °C ) Dew Point ( °F °C ) Humidity (%) Winds ( mph kmh ) Pressure ( in mb ) Visibility ( mi km ) Precip ( " mm )
12:53 am 00:53 Clear 47 8.3 39 3.9 74 74 NNW 3 6 30.13 1020 10 16 0.00 0.00
1:53 am 01:53 Clear 46 7.8 39 3.9 77 77 Calm 30.12 1020 10 16 0.00 0.00
2:53 am 02:53 Clear 44 6.7 38 3.3 79 79 NNE 3 6 30.11 1020 10 16 0.00 0.00
3:53 am 03:53 Clear 48 8.9 38 3.3 68 68 NNW 6 9 30.11 1020 10 16 0.00 0.00
4:53 am 04:53 Clear 43 6.1 37 2.8 80 80 Calm 30.12 1020 10 16 0.00 0.00
5:53 am 05:53 Clear 41 5 36 2.2 82 82 Calm 30.13 1020 10 16 0.00 0.00
6:53 am 06:53 Sunny 40 4.4 35 1.7 83 83 Calm 30.13 1020 10 16 0.00 0.00
7:53 am 07:53 Sunny 45 7.2 38 3.3 77 77 Calm 30.15 1021 10 16 0.00 0.00
8:53 am 08:53 Sunny 53 11.7 38 3.3 57 57 Calm 30.16 1022 10 16 0.00 0.00
9:53 am 09:53 Sunny 58 14.4 41 5 53 53 Calm 30.16 1021 10 16 0.00 0.00
10:53 am 10:53 Sunny 65 18.3 38 3.3 37 37 VRB 3 6 30.15 1021 10 16 0.00 0.00
11:53 am 11:53 Sunny 68 20 42 5.6 39 39 VRB 3 6 30.14 1021 10 16 0.00 0.00
12:53 pm 12:53 Sunny 69 20.6 43 6.1 39 39 S 3 6 30.11 1020 10 16 0.00 0.00
1:53 pm 13:53 Sunny 72 22.2 43 6.1 35 35 Calm 30.09 1019 10 16 0.00 0.00
2:53 pm 14:53 Sunny 74 23.3 42 5.6 32 32 Calm 30.07 1018 10 16 0.00 0.00
3:53 pm 15:53 Sunny 72 22.2 42 5.6 34 34 ESE 3 6 30.06 1018 10 16 0.00 0.00
4:53 pm 16:53 Sunny 72 22.2 44 6.7 37 37 ESE 3 6 30.06 1018 10 16 0.00 0.00
5:53 pm 17:53 Hazy 68 20 42 5.6 39 39 E 3 6 30.06 1018 4 6 0.00 0.00
6:53 pm 18:53 Clear 63 17.2 43 6.1 48 48 Calm 30.07 1018 10 16 0.00 0.00
7:53 pm 19:53 Clear 58 14.4 43 6.1 58 58 NW 6 9 30.08 1019 10 16 0.00 0.00
8:53 pm 20:53 Clear 57 13.9 43 6.1 60 60 Calm 30.08 1019 10 16 0.00 0.00
9:53 pm 21:53 Clear 54 12.2 42 5.6 64 64 Calm 30.09 1019 10 16 0.00 0.00
10:53 pm 22:53 Clear 52 11.1 42 5.6 69 69 Calm 30.09 1019 10 16 0.00 0.00
11:53 pm 23:53 Clear 50 10 42 5.6 74 74 NNE 3 6 30.09 1019 10 16 0.00 0.00

Powered by AerisWeather